This is the latest recevied weather packets stored in our database for station/object KI5RAB. If no packets are shown the sender has not sent any weather packets the latest 10 day(s).
| Time | Temp. | Humidity | Pressure | Rain* | Wind** | Luminosity | Snow |
|---|---|---|---|---|---|---|---|
| 1777413888 | 33.33° C | 62% | 1013 hPa | 0 mm | - | 209 W/m² | - |
| 1777413583 | 33.33° C | 67% | 1013.3 hPa | 0 mm | - | 200 W/m² | - |
| 1777413280 | 33.89° C | 64% | 1013.1 hPa | 0 mm | - | 210 W/m² | - |
| 1777412975 | 33.89° C | 65% | 1013.2 hPa | 0 mm | - | 228 W/m² | - |
| 1777412674 | 33.33° C | 66% | 1013.2 hPa | 0 mm | - | 379 W/m² | - |
| 1777412372 | 32.78° C | 68% | 1013.4 hPa | 0 mm | - | 421 W/m² | - |
| 1777412067 | 32.78° C | 68% | 1013.3 hPa | 0 mm | - | 254 W/m² | - |
| 1777411761 | 32.78° C | 67% | 1013.5 hPa | 0 mm | - | 335 W/m² | - |
| 1777411456 | 33.33° C | 67% | 1013.6 hPa | 0 mm | - | 384 W/m² | - |
| 1777411150 | 32.78° C | 69% | 1013.6 hPa | 0 mm | - | 489 W/m² | - |
| 1777410850 | 32.78° C | 70% | 1013.7 hPa | 0 mm | - | 441 W/m² | - |
| 1777410544 | 31.67° C | 71% | 1013.7 hPa | 0 mm | - | 481 W/m² | - |
| 1777410244 | 31.67° C | 72% | 1013.9 hPa | 0 mm | - | 412 W/m² | - |
| 1777409938 | 32.22° C | 70% | 1014 hPa | 0 mm | - | 165 W/m² | - |
| 1777409633 | 32.22° C | 70% | 1014.1 hPa | 0 mm | - | 469 W/m² | - |
| 1777409330 | 31.67° C | 72% | 1014.1 hPa | 0 mm | - | 412 W/m² | - |
| 1777409025 | 31.11° C | 70% | 1014.3 hPa | 0 mm | - | 283 W/m² | - |
| 1777408723 | 31.11° C | 71% | 1014.2 hPa | 0 mm | - | 295 W/m² | - |
| 1777408418 | 31.67° C | 72% | 1014 hPa | 0 mm | - | 258 W/m² | - |
| 1777408113 | 31.67° C | 72% | 1014.2 hPa | 0 mm | - | 249 W/m² | - |
| 1777407808 | 31.11° C | 72% | 1014.4 hPa | 0 mm | - | 190 W/m² | - |
| 1777407505 | 30.56° C | 73% | 1014.7 hPa | 0 mm | - | 224 W/m² | - |
| 1777407199 | 31.11° C | 72% | 1014.7 hPa | 0 mm | - | 213 W/m² | - |
| 1777406895 | 31.11° C | 72% | 1014.5 hPa | 0 mm | - | 261 W/m² | - |
| 1777406589 | 31.11° C | 72% | 1014.7 hPa | 0 mm | - | 383 W/m² | - |
* Rain latest hour (hover to see other rain measurements)
** Current wind speed in m/s (hover to see current wind gust speed)